Torna al catalogo

STARLINK-32246

AttivoComunicazioniVLEO
NORAD 60432·PAYLOAD·🇺🇸 United States

Lanciato Aug 12, 2024 da Cape Canaveral Space Force Station

Loading…

Prossimi Passaggi (prossime 24 ore)

TLE

AggiornatoSource: CelesTrak SupGP

Epoca: Sep 14, 2026, 14:12 UTC

1 60432C 24144H   26257.59215278 -.00045697  00000+0 -13500-2 0  2571
2 60432  53.1591  57.0506 0001200  85.3295  83.4768 15.34416752    14

Traccia STARLINK-32246 in tempo reale con AllMySat

Download on the App Store